STARLINK-34259, 65368

Orbit data source: Space-Track

STARLINK-34259, 65368 is a payload satellite owned by SpaceX/Seattle (US) in LEO that was launched on Thu, 28 Aug 2025 UTC via an FALCON 9 launch vehicle from the Air Force Eastern Test Range (AFETR). Payload-class satellites include a variety of spacecraft equipped with specific instruments for various scientific and technological missions. These include communications satellites like Starlink; space stations such as the ISS; scientific satellites like the Hubble; Earth observation satellites from companies like Planet Labs, Umbra, and HawkEye 360; GPS; miniature CubeSats for education and research; and military/defense satellites.

Loading next visibility...
Identifier
65368, 2025-190T
Orbit
LEO
Country
Flag of USUS
Related business
Manufacturer
SpaceX/Seattle
Mission
Operational Commercial Communications
Bus & Motor
STARLINK V2MO, Unknown motor
Mass
575 kg wet, ~530 kg dry
Launch date (UTC)
2025-08-28 (7 months ago)
Launch vehicle
FALCON 9
Launch site
Air Force Eastern Test Range (AFETR)
Object type
Payload
Rocket body
Debris
Shape & HBR
Box + 2 Pan, 17.7 m
Radar Cross Section
36.964 m², Large (>1 m²)

Expand to show TLE details & history
Last TLE update: 11 hours ago

TLE from 11 hours ago
0 STARLINK-34259
1 65368U 25190T   26094.16278194  .00042087  00000-0  14256-2 0  9995
2 65368  53.1599  49.9700 0001202  82.1366 277.9771 15.30188257 33659
Epoch: 2026-04-04T03:54Z
TLE epoch observation values (Epoch: 2026-04-04T03:54:24.359Z)
Latitude
-0.00004°
Longitude
158.88196°
Altitude
476.036 km
Speed
7.629 km/s
True Right ascension
03h 19m 52s
True Declination
0° 00' 00"
Sunlit
Object was in daylight at epoch
Visualization orbit readout
Latitude
Unknown
Longitude
Unknown
Altitude
Unknown
Speed
Unknown
Apparent Right ascension
Unknown
Apparent Declination
Unknown
Sunlit
N/A
Visualization observer readout
Local Sidereal Time
21:09:45
Azimuth
Unknown
Elevation
Unknown
Doppler factor
Unknown
Orbital elements
Apogee altitude
476.33 km
Perigee altitude
474.683 km
Semi-major axis
6,853.644 km
Eccentricity
0.00012
Inclination
53.1599°
RAAN
49.97°
Arg. of periapsis
82.1366°
True anomaly
277.96346°
Mean anomaly
277.9771°
Eccentric anomaly
277.97028°
Mean motion
3.82526 °/min
Orbital period
94.11 mins
BSTAR
0.0014256
Loading maneuver chart data...
Computing Atmospheric mass density...
Loading historical data...
Loading historical data...
Loading historical data...
Loading historical data...
Loading historical data...
Loading historical data...
Loading historical data...

Documentation

Showing up to 5 results
|